Terminal Aerodrome Forecast
Issued by NWS

Home | Current Version | Previous Version | Text Only | Print | Product List | Glossary On
Versions: 1 2 3 4 5 6 7 8 9 10 11 12 13 14
000
FTUS41 KILN 012300 RRA
TAFLCK
TAF
KLCK 012341Z 0200/0224 VRB04KT P6SM VCSH SCT060 BKN100
      TEMPO 0209/0213 4SM BR
     FM021600 VRB04KT P6SM -SHRA VCTS BKN040CB
     FM022300 VRB04KT P6SM VCSH BKN050=

USA.gov is the U.S. government's official web portal to all federal, state and local government web resources and services.